Flag for Canada Weather past 2 weeks in Peterborough, Ontario, Canada

Now
21 °F

Sunny.


Feels Like: 8 °F
Forecast: N/A
Wind: 15 mph from Southwest

Location: Peterborough Airport

Current Time: Mar 6, 2015 at 4:07:40 PM

Latest Report: Mar 6, 2015 at 3:00 PM


Visibility: 9 mi

Pressure: 30.34 "Hg

Humidity: 58%

Dew point: 9 °F

Location of PeterboroughLocation

Historic Weather in Peterborough — Graph

°F

Peterborough temperature yesterday

Maximum temperature yesterday: 12 °F (at 12:00 AM)
Minimum temperature yesterday: -6 °F (at 11:00 PM)
Average temperature yesterday: 6 °F

Past Weeks' High & Low Weather Summary

 TemperatureHumidityPressure
High30 °F (Mar 3, 10:00 PM)100% (Feb 21, 7:00 PM)30.77 "Hg (Feb 21, 7:00 PM)
Low-18 °F (Feb 23, 9:00 PM)40% (Feb 26, 2:00 PM)29.54 "Hg (Mar 3, 8:55 PM)
Average7 °F74%30.20 "Hg
* Reported Feb 19 3:00 PM — Mar 6 3:00 PM, Peterborough, Weather by CustomWeather, © 2015

Note: Actual official high and low records may vary slightly from our data, if they occured in-between our weather recording intervals... More about our weather records

Advertising

Peterborough weather history for previous 24 hours

 ConditionsComfort  
Time TempWeatherWind HumidityBarometerVisibility
3:00 PM
Fri, Mar 6
21 °FSunny.15 mph58%30.34 "Hg9 mi
2:00 PM19 °FPartly sunny.18 mph63%30.37 "Hg9 mi
1:00 PM19 °FSunny.15 mph53%30.41 "Hg9 mi
12:00 PM18 °FSunny.14 mph53%30.45 "Hg9 mi
11:00 AM16 °FSunny.16 mph57%30.45 "Hg9 mi
10:00 AM12 °FSunny.2 mph62%30.47 "Hg9 mi
9:00 AM1 °FSunny.6 mph78%30.50 "Hg9 mi
8:00 AM-13 °FSunny.No wind83%30.51 "Hg9 mi
7:00 AM-18 °FSunny.2 mph83%30.51 "Hg9 mi
6:00 AM-17 °FClear.2 mph76%30.50 "Hg9 mi
5:00 AM-15 °FClear.No wind76%30.50 "Hg9 mi
4:00 AM-15 °FClear.3 mph83%30.50 "Hg9 mi
3:00 AM-13 °FClear.2 mph83%30.50 "Hg9 mi
2:00 AM-11 °FClear.3 mph76%30.50 "Hg9 mi
1:00 AM-9 °FClear.5 mph84%30.49 "Hg9 mi
12:00 AM-11 °FClear.5 mph76%30.50 "Hg9 mi
11:00 PM
Thu, Mar 5
-6 °FClear.2 mph70%30.50 "Hg9 mi
10:00 PM1 °FClear.5 mph60%30.49 "Hg9 mi
9:00 PM3 °FClear.7 mph55%30.46 "Hg9 mi
8:00 PM3 °FClear.9 mph55%30.44 "Hg9 mi
7:00 PM7 °FClear.12 mph51%30.42 "Hg9 mi
6:00 PM9 °FSunny.14 mph47%30.38 "Hg9 mi
5:00 PM10 °FSunny.13 mph52%30.35 "Hg9 mi
4:00 PM12 °FSunny.12 mph44%30.33 "Hg9 mi
Weather by CustomWeather, © 2015

See weather overviewHow to use our weather pages